Regional Weather Roundup
Issued by NWS

Home | Current Version | Previous Version | Graphics & Text | Print | Product List | Glossary On
Versions: 1 2 3 4 5 6 7 8 9 10 11 12 13 14 15 16 17 18 19 20 21 22 23 24 25 26 27 28 29 30 31 32 33 34 35 36 37 38 39 40 41 42 43 44 45 46 47 48 49 50
000
ASUS43 KDTX 122210
RWRMI
MICHIGAN HOURLY REGIONAL WEATHER ROUNDUP
NATIONAL WEATHER SERVICE DETROIT/PONTIAC MI
500 PM EST FRI FEB 12 2016

NOTE: "FAIR" INDICATES FEW OR NO CLOUDS BELOW 12,000 FEET WITH NO
SIGNIFICANT WEATHER AND/OR OBSTRUCTION TO VISIBILITY.

MIZ047>049-052>055-059>063-066>070-074>076-081>083-122300-
SOUTHEAST LOWER MICHIGAN

CITY           SKY/WX    TMP DP  RH WIND       PRES   REMARKS
ADRIAN         MOSUNNY   20   8  60 NW17G24   30.00R WCI   5
ALMA           LGT SNOW  19  10  66 NW16G30   30.02R WCI   5
ANN ARBOR      LGT SNOW  18  13  80 NW20G28   29.98R VSB 3/4 WCI   2
BAD AXE        MOCLDY    18  10  71 NW14      29.94R WCI   5
CARO           CLOUDY    18  10  73 NW16G26   29.96R WCI   3
DETROIT CITY   MOCLDY    21  10  62 NW14G23   29.96R HAZE    WCI   8
DETROIT        FLURRIES  20  13  74 NW13      29.98R WCI   7
FLINT          PTCLDY    18   7  62 NW13      29.97R HAZE    WCI   5
GROSSE ILE     PTCLDY    21  10  63 W17G23    29.96R WCI   7
HILLSDALE      LGT SNOW  16  12  82 NW16      29.99R VSB 1   WCI   1
HOWELL         PTCLDY    17  10  76 NW13G18   29.97R WCI   3

CITY           SKY/WX    TMP DP  RH WIND       PRES   REMARKS
JACKSON        LGT SNOW  16   6  65 NW16G25   30.00R WCI   1
LAMBERTVILLE   MOSUNNY   22  12  64 NW12G23   30.00R WCI  11
LANSING        CLOUDY    18   7  62 NW18G26   30.01R WCI   2
LAPEER         LGT SNOW  17  13  86 NW6       29.95R WCI   8
MASON          PTSUNNY   17   9  70 W15G22    30.00R WCI   2
MONROE         MOCLDY    21   9  59 NW17G24   29.98R WCI   7
MT. CLEMENS    LGT SNOW  21  10  63 W18G26    29.93R BLWGSNOWWCI   6
PONTIAC        SNOW      18   8  65 NW23G30   29.94R VSB 1/2 WCI   0
PORT HOPE        N/A     19  14  81 NW21G37   29.91R WCI   3
PORT HURON     MOCLDY    19  10  68 NW14G21   29.94S WCI   6
TRI CITIES     MOCLDY    18   9  68 NW15      29.99R WCI   4
MIDLAND        SNOW      17   8  67 NW20G35   29.99R VSB 1/4 WCI   1
TROY           MOCLDY    22   8  53 W18G26    29.97R WCI   8
SAGINAW HB     LGT SNOW  19  12  73 NW17      29.99R WCI   4
$$
MIZ043>046-050>051-056>058-064>065-071>073-077>080-122300-
SOUTHWEST LOWER MICHIGAN

CITY           SKY/WX    TMP DP  RH WIND       PRES   REMARKS
BATTLE CREEK   SNOW      16  11  80 NW21G28   30.05R VSB 1/2 WCI  -1
BENTON HARBOR  CLOUDY    21   3  45 NW17G36   30.13R WCI   7
BIG RAPIDS     CLOUDY    15   8  72 NW9       30.02R WCI   3
COLDWATER      PTSUNNY   19   9  64 NW15G25   30.04R HAZE    WCI   5
FREMONT        LGT SNOW  15  10  82 NW10      30.07R WCI   2
HOLLAND        CLOUDY    18   5  57 NW15G26   30.11R WCI   4
GRAND RAPIDS   PTSUNNY   18   5  57 NW24G31   30.06R WCI   0
IONIA          FAIR      18   6  57 W24       30.02R WCI   1
KALAMAZOO      LGT SNOW  17  10  74 NW20G29   30.07R VSB 1   WCI   1
LUDINGTON      CLOUDY    15   4  61 N17G30    30.11R WCI  -1
MARSHALL       PTSUNNY   17  11  75 NW12      30.02R WCI   4
MOUNT PLEASANT PTCLDY    19   4  51 NW18G29   30.01R WCI   4
MUSKEGON       LGT SNOW  18   7  62 NW15      30.11R WCI   4
SOUTH HAVEN    LGT SNOW  19   8  61 NW22G30   30.11R WCI   3
$$
MIZ016>042-122300-
NORTHERN LOWER MICHIGAN

CITY           SKY/WX    TMP DP  RH WIND       PRES   REMARKS
ALPENA         CLOUDY    10  -2  58 NW24G31   30.02R BLWGSNOWWCI -10
BEAVER ISLAND  LGT SNOW   7  -6  55 NW14G29   30.13R WCI  -9
BELLAIRE       CLOUDY    11  -1  59 N10G20    30.11R HAZE    WCI  -3
CADILLAC       LGT SNOW  10   5  80 N20G25    30.00R VSB 3/4 WCI  -8
CHARLEVOIX     LGT SNOW  10   2  70 NW24G32   30.12R WCI -10
FRANKFORT      CLOUDY    12   1  63 N18G25    30.14R HAZE    WCI  -6
GAYLORD        HVY SNOW   6   1  80 MISG      30.00R VSB 1/4
GRAYLING       CLOUDY     9   1  69 NW17G25   30.01R HAZE    WCI  -9
HARBOR SPRINGS LGT SNOW   7  -4  60 NW14G20   30.08R WCI -10
HOUGHTON LAKE  LGT SNOW  10   2  69 N20G26    30.01R WCI  -9
MANISTEE       CLOUDY    12   5  73 N18G29    30.12R VSB 1/2 WCI  -5
OSCODA         CLOUDY    13   6  73 N18G25    29.97R HAZE    WCI  -4
PELLSTON       LGT SNOW   5  -4  66 NW23G36   30.09R WCI -17
ROGERS CITY    CLOUDY     8  -6  52 NW20G29   30.04R HAZE    WCI -11
TRAVERSE CITY  LGT SNOW  11   2  67 NW21G33   30.10R VSB 1   WCI  -8
$$
MIZ007>008-015-122300-
EASTERN UPPER MICHIGAN

CITY           SKY/WX    TMP DP  RH WIND       PRES   REMARKS
KINROSS        CLOUDY     1  -2  85 NW24G30   30.03R WCI -22
MACKINAC ISLAN CLOUDY     5  -7  59 NW14G25   30.07R WCI -13
NEWBERRY       LGT SNOW   3  -3  75 NW16G23   30.09R VSB 1   WCI -16
S. S. MARIE    LGT SNOW   0  -8  69 NW15G24   30.06R VSB 1   WCI -19
MUNISING         N/A      4  -3  73 N23G30    30.19R WCI -18
$$
MIZ004>006-011>014-085-122300-
CENTRAL UPPER MICHIGAN

CITY           SKY/WX    TMP DP  RH WIND       PRES   REMARKS
MANISTIQUE     LGT SNOW   4  -4  70 NW16G28   30.15R WCI -15
ESCANABA       CLOUDY     7  -6  56 NW14G25   30.22R WCI -10
MENOMINEE      PTSUNNY    9  -8  47 NW21G32   30.21R WCI -11
SAWYER-GWINN   PTSUNNY   -2 -13  60 NW18G32   30.18R HAZE    WCI -24
$$
MIZ001>003-009>011-084-122300-
WESTERN UPPER MICHIGAN

CITY           SKY/WX    TMP DP  RH WIND       PRES   REMARKS
IRON MOUNTAIN  MOSUNNY    1 -13  51 NW21G36   30.20R HAZE    WCI -21
HOUGHTON       SNOW       0  -8  69 N18G28    30.23R VSB 1/2 WCI -21
COPPER HARBOR    N/A      4   0  83 N31       30.24R WCI -21
IRONWOOD       CLOUDY     1  -2  85 NW14G24   30.30R VSB 1/2 WCI -17
$$

ABBREVIATIONS USED IN REMARKS
   TC - TEMPERATURE IN CELSIUS
  WCI - WIND CHILL INDEX
   HX - HEAT INDEX
  VSB - VISIBILITY




USA.gov is the U.S. government's official web portal to all federal, state and local government web resources and services.